| time (UTC) | temp F | wind direction | speed MPH | gust MPH | rain 1hr in | rain 24hr in | rain mn in | humidity % | barometer mb |
| 20260904043015 | 64 | 162 | 1.0 | 5.0 | 0.00 | 0.19 | 0.00 | 96 | 1011.0 |
| 20260904041513 | 64 | 187 | 0.0 | 6.0 | 0.00 | 0.19 | 0.00 | 96 | 1011.1 |
| 20260904040015 | 64 | 150 | 4.0 | 5.0 | 0.00 | 0.19 | 0.00 | 96 | 1011.3 |
| 20260904034515 | 64 | 66 | 2.0 | 5.0 | 0.00 | 0.19 | 0.00 | 96 | 1011.5 |
| 20260904033012 | 64 | 107 | 3.0 | 6.0 | 0.00 | 0.19 | 0.00 | 96 | 1011.7 |
| 20260904031603 | 65 | 103 | 2.0 | 6.0 | 0.00 | 0.19 | 0.00 | 95 | 1011.8 |
| 20260904030101 | 65 | 30 | 4.0 | 11.0 | 0.00 | 0.19 | 0.00 | 95 | 1011.7 |
| 20260904024559 | 66 | 117 | 3.0 | 5.0 | 0.00 | 0.19 | 0.00 | 95 | 1011.6 |
| 20260904023102 | 65 | 110 | 2.0 | 3.0 | 0.00 | 0.19 | 0.00 | 95 | 1011.5 |
| 20260904021606 | 65 | 115 | 1.0 | 3.0 | 0.00 | 0.19 | 0.00 | 95 | 1011.9 |
| 20260904020101 | 65 | 73 | 2.0 | 3.0 | 0.00 | 0.19 | 0.00 | 95 | 1011.8 |
| 20260904014602 | 65 | 90 | 0.0 | 3.0 | 0.00 | 0.19 | 0.00 | 95 | 1012.0 |
| 20260904013055 | 65 | 158 | 0.0 | 2.0 | 0.00 | 0.19 | 0.00 | 95 | 1012.1 |
| 20260904011542 | 65 | 99 | 0.0 | 2.0 | 0.00 | 0.19 | 0.00 | 94 | 1012.2 |
| 20260904010045 | 65 | 99 | 0.0 | 0.0 | 0.00 | 0.19 | 0.00 | 94 | 1011.9 |
| 20260904004543 | 65 | 99 | 0.0 | 2.0 | 0.00 | 0.19 | 0.00 | 94 | 1011.8 |
| 20260904003038 | 65 | 117 | 1.0 | 2.0 | 0.00 | 0.19 | 0.00 | 94 | 1011.7 |
| 20260904001537 | 65 | 137 | 1.0 | 2.0 | 0.00 | 0.19 | 0.00 | 93 | 1011.4 |
| 20260904000036 | 65 | 89 | 0.0 | 2.0 | 0.00 | 0.19 | 0.00 | 93 | 1011.5 |
| 20260903234535 | 65 | 89 | 1.0 | 2.0 | 0.00 | 0.19 | 0.00 | 93 | 1011.2 |
| 20260903233033 | 66 | 109 | 2.0 | 3.0 | 0.00 | 0.19 | 0.00 | 92 | 1011.2 |
| 20260903231529 | 66 | 93 | 2.0 | 3.0 | 0.00 | 0.19 | 0.00 | 92 | 1011.5 |
| 20260903230023 | 66 | 103 | 4.0 | 7.0 | 0.00 | 0.19 | 0.00 | 91 | 1011.0 |
| 20260903224530 | 67 | 116 | 4.0 | 7.0 | 0.00 | 0.19 | 0.00 | 90 | 1011.3 |
| 20260903223012 | 67 | 78 | 4.0 | 6.0 | 0.00 | 0.19 | 0.00 | 90 | 1011.7 |
| 20260903221511 | 68 | 91 | 3.0 | 5.0 | 0.00 | 0.19 | 0.00 | 89 | 1011.7 |
| 20260903220008 | 69 | 90 | 6.0 | 8.0 | 0.00 | 0.19 | 0.00 | 87 | 1011.7 |
| 20260903214504 | 70 | 119 | 5.0 | 7.0 | 0.00 | 0.19 | 0.00 | 86 | 1011.5 |
| 20260903213003 | 71 | 89 | 2.0 | 4.0 | 0.00 | 0.19 | 0.00 | 84 | 1011.6 |
| 20260903211549 | 71 | 120 | 1.0 | 3.0 | 0.00 | 0.19 | 0.00 | 84 | 1011.4 |
| 20260903210120 | 71 | 151 | 2.0 | 4.0 | 0.00 | 0.19 | 0.00 | 85 | 1011.5 |
| 20260903204550 | 71 | 120 | 2.0 | 5.0 | 0.00 | 0.19 | 0.00 | 86 | 1011.5 |
| 20260903203104 | 71 | 134 | 2.0 | 4.0 | 0.00 | 0.19 | 0.00 | 85 | 1011.7 |
| 20260903201547 | 70 | 111 | 1.0 | 3.0 | 0.00 | 0.19 | 0.00 | 85 | 1011.8 |
| 20260903200050 | 71 | 99 | 2.0 | 3.0 | 0.00 | 0.19 | 0.19 | 85 | 1011.8 |
| 20260903194540 | 70 | 123 | 2.0 | 4.0 | 0.00 | 0.19 | 0.19 | 86 | 1012.0 |
| 20260903193039 | 70 | 126 | 3.0 | 5.0 | 0.00 | 0.19 | 0.19 | 86 | 1011.9 |
| 20260903191534 | 70 | 136 | 2.0 | 4.0 | 0.00 | 0.19 | 0.19 | 86 | 1012.2 |
| 20260903190027 | 70 | 121 | 2.0 | 4.0 | 0.00 | 0.19 | 0.19 | 86 | 1012.4 |
| 20260903184524 | 70 | 48 | 0.0 | 2.0 | 0.00 | 0.19 | 0.19 | 86 | 1012.5 |
| 20260903183022 | 70 | 48 | 2.0 | 4.0 | 0.00 | 0.19 | 0.19 | 87 | 1012.6 |
| 20260903181520 | 70 | 9 | 4.0 | 6.0 | 0.00 | 0.19 | 0.19 | 86 | 1012.9 |
| 20260903180023 | 70 | 5 | 1.0 | 6.0 | 0.00 | 0.19 | 0.19 | 85 | 1013.0 |
| 20260903174519 | 70 | 360 | 2.0 | 7.0 | 0.00 | 0.19 | 0.19 | 85 | 1012.9 |
| 20260903173017 | 69 | 306 | 3.0 | 6.0 | 0.00 | 0.19 | 0.19 | 88 | 1012.9 |
| 20260903171559 | 69 | 333 | 3.0 | 7.0 | 0.00 | 0.19 | 0.19 | 87 | 1012.8 |
| 20260903170056 | 69 | 338 | 3.0 | 7.0 | 0.00 | 0.19 | 0.19 | 87 | 1012.9 |
| 20260903164547 | 68 | 339 | 2.0 | 7.0 | 0.00 | 0.19 | 0.19 | 89 | 1012.9 |
| 20260903163043 | 67 | 26 | 3.0 | 4.0 | 0.00 | 0.19 | 0.19 | 89 | 1012.8 |
| 20260903161538 | 67 | 319 | 3.0 | 6.0 | 0.00 | 0.19 | 0.19 | 91 | 1013.1 |
| 20260903160035 | 67 | 9 | 2.0 | 6.0 | 0.00 | 0.19 | 0.19 | 91 | 1013.3 |
| 20260903154541 | 66 | 292 | 3.0 | 6.0 | 0.00 | 0.19 | 0.19 | 92 | 1013.6 |
| 20260903153032 | 66 | 348 | 3.0 | 5.0 | 0.00 | 0.19 | 0.19 | 92 | 1013.5 |
| 20260903151530 | 66 | 336 | 3.0 | 5.0 | 0.00 | 0.19 | 0.19 | 93 | 1013.6 |
| 20260903150029 | 66 | 325 | 2.0 | 4.0 | 0.00 | 0.19 | 0.19 | 93 | 1013.8 |
| 20260903144529 | 66 | 307 | 0.0 | 3.0 | 0.00 | 0.19 | 0.19 | 95 | 1014.0 |
| 20260903143015 | 65 | 9 | 1.0 | 3.0 | 0.00 | 0.19 | 0.19 | 95 | 1014.0 |
| 20260903141513 | 65 | 126 | 0.0 | 2.0 | 0.00 | 0.19 | 0.19 | 96 | 1014.3 |
| 20260903140016 | 64 | 103 | 0.0 | 2.0 | 0.00 | 0.19 | 0.19 | 96 | 1014.3 |
| 20260903134513 | 64 | 121 | 0.0 | 3.0 | 0.00 | 0.19 | 0.19 | 96 | 1014.3 |
| 20260903133017 | 64 | 122 | 1.0 | 2.0 | 0.01 | 0.19 | 0.19 | 96 | 1014.3 |
| 20260903131511 | 64 | 105 | 1.0 | 3.0 | 0.01 | 0.19 | 0.19 | 96 | 1014.4 |
| 20260903130010 | 63 | 74 | 1.0 | 2.0 | 0.02 | 0.19 | 0.19 | 96 | 1014.4 |
| 20260903124516 | 63 | 74 | 1.0 | 2.0 | 0.02 | 0.19 | 0.19 | 96 | 1014.6 |
| 20260903123053 | 63 | 81 | 1.0 | 3.0 | 0.02 | 0.18 | 0.18 | 96 | 1014.9 |
| 20260903121551 | 63 | 82 | 1.0 | 3.0 | 0.04 | 0.18 | 0.18 | 96 | 1015.0 |
| 20260903120053 | 63 | 86 | 2.0 | 3.0 | 0.04 | 0.17 | 0.17 | 95 | 1015.2 |
| 20260903114549 | 63 | 80 | 0.0 | 3.0 | 0.06 | 0.17 | 0.17 | 95 | 1015.4 |
| 20260903113051 | 63 | 71 | 1.0 | 2.0 | 0.09 | 0.16 | 0.16 | 95 | 1015.4 |
| 20260903111548 | 63 | 62 | 1.0 | 4.0 | 0.10 | 0.14 | 0.14 | 95 | 1015.3 |
| 20260903110053 | 63 | 76 | 0.0 | 2.0 | 0.11 | 0.13 | 0.13 | 95 | 1015.5 |
| 20260903104550 | 63 | 88 | 3.0 | 5.0 | 0.11 | 0.11 | 0.11 | 94 | 1015.2 |
| 20260903103030 | 63 | 332 | 2.0 | 4.0 | 0.07 | 0.07 | 0.07 | 94 | 1015.7 |
| 20260903101535 | 63 | 98 | 1.0 | 2.0 | 0.04 | 0.04 | 0.04 | 94 | 1015.2 |
| 20260903100008 | 63 | 328 | 1.0 | 2.0 | 0.01 | 0.01 | 0.01 | 93 | 1015.5 |
| 20260903094505 | 63 | 314 | 1.0 | 3.0 | 0.00 | 0.00 | 0.00 | 93 | 1015.6 |
| 20260903093104 | 63 | 238 | 0.0 | 2.0 | 0.00 | 0.00 | 0.00 | 92 | 1015.6 |
| 20260903091546 | 63 | 259 | 1.0 | 4.0 | 0.00 | 0.00 | 0.00 | 90 | 1015.6 |
| 20260903090027 | 64 | 296 | 0.0 | 5.0 | 0.00 | 0.00 | 0.00 | 87 | 1015.6 |
| 20260903084527 | 65 | 179 | 1.0 | 7.0 | 0.00 | 0.00 | 0.00 | 84 | 1015.6 |
| 20260903083035 | 65 | 143 | 2.0 | 8.0 | 0.00 | 0.00 | 0.00 | 84 | 1015.3 |
| 20260903081531 | 65 | 168 | 2.0 | 6.0 | 0.00 | 0.00 | 0.00 | 85 | 1015.5 |
| 20260903080021 | 65 | 176 | 1.0 | 5.0 | 0.00 | 0.00 | 0.00 | 86 | 1015.8 |
| 20260903074520 | 65 | 167 | 2.0 | 5.0 | 0.00 | 0.00 | 0.00 | 88 | 1016.1 |
| 20260903073020 | 65 | 147 | 2.0 | 5.0 | 0.00 | 0.00 | 0.00 | 89 | 1016.0 |
| 20260903071518 | 65 | 162 | 2.0 | 6.0 | 0.00 | 0.00 | 0.00 | 89 | 1016.2 |
| 20260903070005 | 65 | 130 | 3.0 | 4.0 | 0.00 | 0.00 | 0.00 | 89 | 1016.5 |
| 20260903064502 | 65 | 152 | 1.0 | 4.0 | 0.00 | 0.00 | 0.00 | 89 | 1017.1 |
| 20260903063125 | 65 | 221 | 0.0 | 3.0 | 0.00 | 0.00 | 0.00 | 89 | 1017.5 |
| 20260903061559 | 65 | 191 | 0.0 | 2.0 | 0.00 | 0.00 | 0.00 | 88 | 1017.9 |
| 20260903060107 | 65 | 213 | 1.0 | 3.0 | 0.00 | 0.00 | 0.00 | 88 | 1018.2 |
| 20260903054556 | 65 | 189 | 0.0 | 4.0 | 0.00 | 0.00 | 0.00 | 88 | 1018.3 |
| 20260903053055 | 65 | 180 | 2.0 | 5.0 | 0.00 | 0.00 | 0.00 | 88 | 1018.1 |
| 20260903051555 | 65 | 167 | 2.0 | 7.0 | 0.00 | 0.00 | 0.00 | 88 | 1018.2 |
| 20260903044542 | 65 | 196 | 1.0 | 3.0 | 0.00 | 0.00 | 0.00 | 88 | 1018.6 |